When you browse on this site, cookies collect data to enhance your experience and personalize the content and advertising you see.
Visit our Privacy Policy to learn more. By continuing to use the site, you agree to this use of cookies and data.
  • în România
  • Lista ţărilor
  • Pe 7 zile
  • Temperatura apei
  • Hartă satelitară
  • Meteo pe hartă
  • Widget-uri
  • user-avatar
    Intrare

    Meteo pe oră la Naftalan

    Astăzi, 18 Aprilie, Joi

    Timp Temperatura Precipitaţii Vânt Presiune Umiditate
    00:00 +15°C° 0 mm 2 m/s 758 mmHg 80%
    01:00 +13°C° 0 mm 3 m/s 758 mmHg 81%
    02:00 +13°C° 0 mm 3 m/s 759 mmHg 81%
    03:00 +12°C° 0 mm 4 m/s 759 mmHg 80%
    04:00 +12°C° 0 mm 4 m/s 759 mmHg 76%
    05:00 +12°C° 0 mm 4 m/s 760 mmHg 72%
    06:00 +12°C° 0 mm 4 m/s 760 mmHg 68%
    07:00 +14°C° 0 mm 4 m/s 760 mmHg 61%
    08:00 +17°C° 0 mm 4 m/s 761 mmHg 54%
    09:00 +19°C° 0 mm 5 m/s 761 mmHg 47%
    10:00 +17°C° 0 mm 6 m/s 761 mmHg 52%
    11:00 +17°C° 0 mm 8 m/s 762 mmHg 58%
    12:00 +16°C° 0 mm 9 m/s 762 mmHg 63%
    13:00 +16°C° 0 mm 9 m/s 762 mmHg 63%
    14:00 +15°C° 0 mm 9 m/s 762 mmHg 63%
    15:00 +13°C° 0 mm 10 m/s 763 mmHg 62%
    16:00 +12°C° 0 mm 10 m/s 763 mmHg 64%
    17:00 +11°C° 0 mm 10 m/s 764 mmHg 65%
    18:00 +11°C° 0 mm 10 m/s 764 mmHg 66%
    19:00 +9°C° 0 mm 10 m/s 765 mmHg 67%
    20:00 +9°C° 0 mm 10 m/s 765 mmHg 68%
    21:00 +8°C° 0 mm 11 m/s 765 mmHg 69%
    22:00 +8°C° 0 mm 10 m/s 766 mmHg 71%
    23:00 +8°C° 0 mm 10 m/s 766 mmHg 72%

    Mâine, 19 Aprilie, Vineri

    Timp Temperatura Precipitaţii Vânt Presiune Umiditate
    00:00 +8°C° 0 mm 10 m/s 766 mmHg 73%
    01:00 +8°C° 0 mm 10 m/s 766 mmHg 74%
    02:00 +8°C° 0 mm 10 m/s 766 mmHg 74%
    03:00 +7°C° 0 mm 9 m/s 766 mmHg 74%
    04:00 +7°C° 0.1 mm 9 m/s 766 mmHg 75%
    05:00 +7°C° 0.1 mm 9 m/s 766 mmHg 76%
    06:00 +7°C° 0.1 mm 8 m/s 766 mmHg 77%
    07:00 +7°C° 0.1 mm 8 m/s 766 mmHg 77%
    08:00 +7°C° 0.1 mm 8 m/s 766 mmHg 77%
    09:00 +9°C° 0.1 mm 8 m/s 766 mmHg 78%
    10:00 +9°C° 0 mm 8 m/s 766 mmHg 76%
    11:00 +9°C° 0 mm 8 m/s 766 mmHg 75%
    12:00 +10°C° 0 mm 8 m/s 766 mmHg 73%
    13:00 +9°C° 0.1 mm 8 m/s 766 mmHg 73%
    14:00 +9°C° 0.1 mm 8 m/s 766 mmHg 73%
    15:00 +9°C° 0.1 mm 8 m/s 765 mmHg 73%
    16:00 +9°C° 0.1 mm 8 m/s 765 mmHg 74%
    17:00 +9°C° 0.1 mm 8 m/s 766 mmHg 74%
    18:00 +9°C° 0.1 mm 8 m/s 766 mmHg 74%
    19:00 +9°C° 0.4 mm 8 m/s 766 mmHg 76%
    20:00 +7°C° 0.4 mm 8 m/s 766 mmHg 77%
    21:00 +7°C° 0.4 mm 8 m/s 767 mmHg 78%
    22:00 +7°C° 0.3 mm 8 m/s 767 mmHg 79%
    23:00 +7°C° 0.3 mm 9 m/s 766 mmHg 79%

    Poimâine, 20 Aprilie, Sâmbătă

    Timp Temperatura Precipitaţii Vânt Presiune Umiditate
    00:00 +6°C° 0.3 mm 9 m/s 766 mmHg 80%
    01:00 +6°C° 0.2 mm 9 m/s 765 mmHg 80%
    02:00 +6°C° 0.2 mm 9 m/s 765 mmHg 79%
    03:00 +6°C° 0.2 mm 10 m/s 765 mmHg 79%
    04:00 +6°C° 1 mm 10 m/s 765 mmHg 79%
    05:00 +6°C° 1 mm 9 m/s 765 mmHg 80%
    06:00 +6°C° 1 mm 9 m/s 765 mmHg 80%
    07:00 +6°C° 0.2 mm 10 m/s 765 mmHg 79%
    08:00 +6°C° 0.2 mm 10 m/s 765 mmHg 78%
    09:00 +7°C° 0.2 mm 10 m/s 766 mmHg 77%
    10:00 +7°C° 0.2 mm 10 m/s 766 mmHg 76%
    11:00 +7°C° 0.2 mm 10 m/s 766 mmHg 75%
    12:00 +7°C° 0.2 mm 9 m/s 766 mmHg 74%
    13:00 +8°C° 0 mm 9 m/s 766 mmHg 71%
    14:00 +10°C° 0 mm 9 m/s 766 mmHg 68%
    15:00 +10°C° 0 mm 9 m/s 766 mmHg 65%
    16:00 +10°C° 0 mm 8 m/s 767 mmHg 67%
    17:00 +9°C° 0 mm 8 m/s 767 mmHg 68%
    18:00 +9°C° 0 mm 8 m/s 767 mmHg 70%
    19:00 +9°C° 0 mm 7 m/s 768 mmHg 71%
    20:00 +8°C° 0 mm 6 m/s 768 mmHg 72%
    21:00 +8°C° 0 mm 6 m/s 769 mmHg 72%
    22:00 +8°C° 0 mm 5 m/s 769 mmHg 72%
    23:00 +8°C° 0 mm 5 m/s 769 mmHg 72%

    21 Aprilie, Duminică

    Timp Temperatura Precipitaţii Vânt Presiune Umiditate
    00:00 +8°C° 0 mm 5 m/s 769 mmHg 73%
    01:00 +8°C° 0 mm 4 m/s 768 mmHg 73%
    02:00 +8°C° 0 mm 4 m/s 768 mmHg 73%
    03:00 +8°C° 0 mm 4 m/s 768 mmHg 73%
    04:00 +8°C° 0 mm 5 m/s 768 mmHg 73%
    05:00 +8°C° 0 mm 5 m/s 768 mmHg 72%
    06:00 +8°C° 0 mm 5 m/s 769 mmHg 72%
    07:00 +9°C° 0 mm 5 m/s 769 mmHg 70%
    08:00 +9°C° 0 mm 5 m/s 769 mmHg 68%
    09:00 +10°C° 0 mm 5 m/s 769 mmHg 66%
    10:00 +10°C° 0 mm 5 m/s 769 mmHg 64%
    11:00 +12°C° 0 mm 5 m/s 769 mmHg 61%
    12:00 +13°C° 0 mm 4 m/s 768 mmHg 59%
    13:00 +13°C° 0 mm 5 m/s 768 mmHg 60%
    14:00 +13°C° 0 mm 5 m/s 768 mmHg 61%
    15:00 +12°C° 0 mm 5 m/s 768 mmHg 62%
    16:00 +12°C° 0 mm 5 m/s 768 mmHg 65%
    17:00 +12°C° 0 mm 4 m/s 768 mmHg 67%
    18:00 +11°C° 0 mm 4 m/s 768 mmHg 70%
    19:00 +11°C° 0 mm 4 m/s 769 mmHg 71%
    20:00 +11°C° 0 mm 3 m/s 769 mmHg 71%
    21:00 +11°C° 0 mm 3 m/s 770 mmHg 72%
    22:00 +11°C° 0 mm 3 m/s 770 mmHg 72%
    23:00 +10°C° 0 mm 3 m/s 769 mmHg 71%

    22 Aprilie, Luni

    Timp Temperatura Precipitaţii Vânt Presiune Umiditate
    00:00 +10°C° 0 mm 3 m/s 769 mmHg 71%
    01:00 +10°C° 0 mm 4 m/s 769 mmHg 70%
    02:00 +10°C° 0 mm 4 m/s 769 mmHg 68%
    03:00 +9°C° 0 mm 5 m/s 768 mmHg 66%
    04:00 +9°C° 0 mm 5 m/s 768 mmHg 68%
    05:00 +9°C° 0 mm 5 m/s 768 mmHg 69%
    06:00 +9°C° 0 mm 5 m/s 768 mmHg 70%
    07:00 +9°C° 0 mm 6 m/s 768 mmHg 70%
    08:00 +10°C° 0 mm 6 m/s 768 mmHg 70%
    09:00 +10°C° 0 mm 7 m/s 768 mmHg 70%
    10:00 +11°C° 0.2 mm 7 m/s 768 mmHg 69%
    11:00 +11°C° 0.2 mm 8 m/s 767 mmHg 68%
    12:00 +11°C° 0.2 mm 8 m/s 767 mmHg 67%
    13:00 +11°C° 1.1 mm 8 m/s 767 mmHg 68%
    14:00 +11°C° 1.1 mm 8 m/s 767 mmHg 70%
    15:00 +11°C° 1.1 mm 8 m/s 766 mmHg 71%
    16:00 +10°C° 1.7 mm 8 m/s 767 mmHg 72%
    17:00 +10°C° 1.7 mm 9 m/s 767 mmHg 73%
    18:00 +8°C° 1.7 mm 9 m/s 767 mmHg 74%
    19:00 +8°C° 1.4 mm 9 m/s 767 mmHg 74%
    20:00 +8°C° 1.4 mm 9 m/s 768 mmHg 74%
    21:00 +7°C° 1.4 mm 8 m/s 768 mmHg 74%
    22:00 +7°C° 0.8 mm 8 m/s 768 mmHg 77%
    23:00 +7°C° 0.8 mm 8 m/s 768 mmHg 79%

    23 Aprilie, Marţi

    Timp Temperatura Precipitaţii Vânt Presiune Umiditate
    00:00 +7°C° 0.8 mm 8 m/s 768 mmHg 81%
    01:00 +6°C° 0.4 mm 8 m/s 769 mmHg 82%
    02:00 +6°C° 0.4 mm 8 m/s 769 mmHg 84%
    03:00 +6°C° 0.4 mm 7 m/s 769 mmHg 85%
    04:00 +6°C° 0.2 mm 7 m/s 770 mmHg 83%
    05:00 +7°C° 0.2 mm 6 m/s 770 mmHg 82%
    06:00 +7°C° 0.2 mm 5 m/s 771 mmHg 80%
    07:00 +8°C° 0 mm 5 m/s 771 mmHg 75%
    08:00 +9°C° 0 mm 5 m/s 772 mmHg 70%
    09:00 +10°C° 0 mm 5 m/s 772 mmHg 65%
    10:00 +12°C° 0 mm 5 m/s 772 mmHg 59%
    11:00 +13°C° 0 mm 4 m/s 773 mmHg 53%
    12:00 +14°C° 0 mm 4 m/s 773 mmHg 48%
    13:00 +14°C° 0 mm 4 m/s 773 mmHg 47%
    14:00 +15°C° 0 mm 4 m/s 773 mmHg 47%
    15:00 +15°C° 0 mm 4 m/s 773 mmHg 46%
    16:00 +14°C° 0 mm 4 m/s 773 mmHg 49%
    17:00 +13°C° 0 mm 3 m/s 773 mmHg 53%
    18:00 +13°C° 0 mm 3 m/s 773 mmHg 56%
    19:00 +12°C° 0 mm 3 m/s 774 mmHg 58%
    20:00 +11°C° 0 mm 3 m/s 774 mmHg 59%
    21:00 +11°C° 0 mm 3 m/s 774 mmHg 60%
    22:00 +11°C° 0 mm 3 m/s 774 mmHg 61%
    23:00 +10°C° 0 mm 3 m/s 774 mmHg 61%
    Arată mai mult